Regional Weather Roundup
Issued by NWS State College, PA

Home | Current Version | Previous Version | Graphics & Text | Print | Product List | Glossary On
Versions: 1 2 3 4 5 6 7 8 9 10 11 12 13 14 15 16 17 18 19 20 21 22 23 24 25 26 27 28 29 30 31 32 33 34 35 36 37 38 39 40 41 42 43 44 45 46 47 48 49 50
000
ASUS41 KCTP 172003
RWRCTP

REGIONAL WEATHER ROUNDUP
NATIONAL WEATHER SERVICE STATE COLLEGE PA
400 PM EDT THU APR 17 2014

Note: "fair" indicates few or no clouds below 12,000 feet with no
significant weather and/or obstructions to visibility.

* = STATION THAT DOES NOT REPORT PRECIPITATION /E.G. RAIN...SNOW...ETC/
    THUNDER OR FOG.

PAZ002>004-007>009-013>016-020>023-029>032-172100-
WESTERN PENNSYLVANIA

CITY           SKY/WX    TMP DP  RH WIND       PRES   REMARKS
ERIE           SUNNY     63  25  23 S10       30.34F
MEADVILLE      SUNNY     60  26  27 SE8       30.35F
FRANKLIN*      SUNNY     57  27  30 SE14G21   30.39F
NEW CASTLE     FAIR      62  25  24 S3        30.37F
BEAVER COUNTY  NOT AVBL
BUTLER*        SUNNY     61  28  29 S12G17    30.40F
PITTSBURGH INT MOSUNNY   62  26  25 S10       30.37F
PITTSBURGH     SUNNY     63  23  21 S8G17     30.37F
INDIANA*       SUNNY     55  25  30 SE9       30.43F
LATROBE        MOSUNNY   57  28  33 S12       30.42F
WASHINGTON CO* SUNNY     63  28  27 S8        30.39F
$$

PAZ004>006-010>012-017>019-024>028-033>037-041-042-045-046-049>053-172100-
CENTRAL PENNSYLVANIA

CITY           SKY/WX    TMP DP  RH WIND       PRES   REMARKS
BRADFORD       SUNNY     52  21  29 S12G24    30.41F
DUBOIS         MOSUNNY   55  23  28 SE14G22   30.41F
CLEARFIELD     MOSUNNY   53  21  28 SE10G20   30.46F
JOHNSTOWN      MOSUNNY   50  25  37 SE10      30.43F
ALTOONA        SUNNY     53  29  39 SE14      30.48F
STATE COLLEGE  SUNNY     54  19  26 S14       30.49F
WILLIAMSPORT   PTSUNNY   54  24  31 SE7G21    30.53F
SELINSGROVE    PTSUNNY   55  26  32 S9G20     30.55F
FT INDIANTOWN  MOSUNNY   53  29  41 SE8       30.57F
CAPITAL CITY   SUNNY     54  32  43 E16G22    30.56F
HARRISBURG     PTSUNNY   56  30  37 SE10      30.56F
YORK           SUNNY     54  30  40 SE12G18   30.56F
$$

PAZ038>040-043-044-047-048-054-055-060>062-067>071-172100-
EASTERN PENNSYLVANIA

CITY           SKY/WX    TMP DP  RH WIND       PRES   REMARKS
SCRANTON       MOSUNNY   52  20  28 S7G21     30.54F
MOUNT POCONO   SUNNY     47  21  35 SE12      30.54F
ALLENTOWN      SUNNY     52  22  30 S12       30.60F
QUAKERTOWN*    PTCLDY    50  28  43 E9G16     30.62F
READING        SUNNY     54  27  35 SE8G16    30.58F
LANCASTER      SUNNY     53  30  41 SE15      30.57F
COATESVILLE    CLEAR     52  27  37 SE7       30.59F
POTTSTOWN      SUNNY     51  30  44 VRB6      30.62F
BLUE BELL      MOSUNNY   52  30  43 E9        30.62F
DOYLESTOWN     MOSUNNY   47  30  51 VRB5G17   30.62F
WILLOW GROVE   NOT AVBL
NORTH PHILA    MOSUNNY   50  28  42 E9G22     30.66F
PHILADELPHIA   MOSUNNY   52  29  41 E13       30.64F
$$



USA.gov is the U.S. government's official web portal to all federal, state and local government web resources and services.